Regional Weather Roundup
Issued by NWS

Current Version | Previous Version | Text Only | Print | Product List | Glossary On
Versions: 1 2 3 4 5 6 7 8 9 10 11 12 13 14 15 16 17 18 19 20 21 22 23 24 25 26 27 28 29 30 31 32 33 34 35 36 37 38 39 40 41 42 43 44 45 46 47 48 49 50
000
ASUS44 KFWD 261215
RWRTX
NORTH TEXAS HOURLY WEATHER ROUNDUP
NATIONAL WEATHER SERVICE FORT WORTH TX
700 AM CDT WED APR 26 2017

NOTE: "FAIR" INDICATES FEW OR NO CLOUDS BELOW 12,000 FEET WITH NO
SIGNIFICANT WEATHER AND/OR OBSTRUCTIONS TO VISIBILITY.

TXZ118-119-261300-
DALLAS/FORT WORTH METROPLEX

CITY           SKY/WX    TMP DP  RH WIND       PRES   REMARKS
DFW AIRPORT    CLOUDY    72  69  90 S8        29.45R THUNDER
6HR MIN TEMP:  72; 6HR MAX TEMP:  76; 6HR PCP:  0.05;

DALLAS LOVE    TSTM      71  67  87 S5        29.46R
6HR MIN TEMP:  71; 6HR MAX TEMP:  76; 6HR PCP:  0.08;

FTW MEACHAM    CLOUDY    73  71  93 S8        29.46R
6HR MIN TEMP:  73; 6HR MAX TEMP:  76; 6HR PCP: TRACE;

DAL-EXECUTIVE  TSTM      72  71  97 VRB3      29.47R FOG
6HR MIN TEMP:  72; 6HR MAX TEMP:  75; 6HR PCP:  0.36;

FTW-ALLIANCE   CLOUDY    71  69  93 W5        29.46S
6HR MIN TEMP:  70; 6HR MAX TEMP:  75;

FTW-NAS-JRB    CLOUDY    73  70  90 SW5       29.47R
6HR MIN TEMP:  73; 6HR MAX TEMP:  76; 6HR PCP: TRACE;

FTW-SPINKS     LGT RAIN  72  70  94 SE5       29.47S
ARLINGTON      TSTM      72  69  90 S6        29.47R
6HR MIN TEMP:  71; 6HR MAX TEMP:  75; 6HR PCP:  0.27;

GRAND PRAIRIE  RAIN      72  72 100 CALM      29.46S
ADDISON        TSTM      72  66  83 S8G18     29.46R
MESQUITE       CLOUDY    72  70  94 CALM      29.47R
LANCASTER      CLOUDY    72  69  90 S8        29.46S
6HR MIN TEMP:  72; 6HR MAX TEMP:  74;

$$

TXZ091>094-102>105-117-120-121-131>134-261300-
NORTH CENTRAL TEXAS

CITY           SKY/WX    TMP DP  RH WIND       PRES   REMARKS
SHRMAN/DENISON DRIZZLE   66  63  90 NW16G22   29.47R
6HR MIN TEMP:  66; 6HR MAX TEMP:  73;

GAINESVILLE    CLOUDY    59  57  92 N17       29.51R
6HR MIN TEMP:  59; 6HR MAX TEMP:  73;

BOWIE          CLOUDY    57  55  91 N13G22    29.52S
6HR MIN TEMP:  57; 6HR MAX TEMP:  74;

BRIDGEPORT     PTCLDY    60  55  85 N8        29.52S
6HR MIN TEMP:  60; 6HR MAX TEMP:  74;

DECATUR        CLOUDY    60  56  88 NW5       29.50R
6HR MIN TEMP:  60; 6HR MAX TEMP:  74;

DENTON         LGT RAIN  66  63  90 NW12G25   29.48R
6HR MIN TEMP:  69; 6HR MAX TEMP:  74;

MCKINNEY       TSTM      73  71  93 S10G22    29.45R FOG
6HR MIN TEMP:  72; 6HR MAX TEMP:  75; 6HR PCP: TRACE;

BONHAM         CLOUDY    70  68  94 S22       29.44R
GREENVILLE     CLOUDY    73  70  88 S12       29.47R
ROCKWALL       TSTM      71  71  99 SW13G21   29.48R
6HR MIN TEMP:  71; 6HR MAX TEMP:  74; 6HR PCP:  0.24;

TERRELL        CLOUDY    72  69  90 S7        29.48R
6HR MIN TEMP:  72; 6HR MAX TEMP:  75; 6HR PCP: TRACE;

WAXAHACHIE     LGT RAIN  72  72 100 SE7       29.47S
6HR MIN TEMP:  72; 6HR MAX TEMP:  73;

CLEBURNE       TSTM      72  72 100 S13       29.49R
GRANBURY       CLOUDY    72  68  89 W3        29.49R
6HR MIN TEMP:  72; 6HR MAX TEMP:  76;

$$

TXZ083>090-098>101-113>116-127>130-139>142-154-155-261300-
WESTERN NORTH TEXAS

CITY           SKY/WX    TMP DP  RH WIND       PRES   REMARKS
WICHITA FALLS  CLOUDY    53  47  79 N17       29.54S
6HR MIN TEMP:  53; 6HR MAX TEMP:  69; 6HR PCP:  0.01;

VERNON         CLOUDY    55  45  69 NE12      29.57R
6HR MIN TEMP:  44; 6HR MAX TEMP:  94;

ABILENE        LGT RAIN  59  52  77 N10       29.59R
6HR MIN TEMP:  59; 6HR MAX TEMP:  75; 6HR PCP: TRACE;

ABILENE-DYESS  CLOUDY    58  51  75 N13       29.58R
6HR MIN TEMP:  58; 6HR MAX TEMP:  82;

GRAHAM         CLOUDY    57  57 100 N9G18     29.53R
6HR MIN TEMP:  57; 6HR MAX TEMP:  74;

BRECKENRIDGE   CLOUDY    61  55  81 N12G17    29.55R
6HR MIN TEMP:  61; 6HR MAX TEMP:  77;

CISCO          DRIZZLE   63  55  77 N8G17     29.53R
RANGER         CLOUDY    63  57  81 N3        29.52R
6HR MIN TEMP:  60; 6HR MAX TEMP:  89;

MINERAL WELLS  PTCLDY    62  57  83 N14       29.49R
6HR MIN TEMP:  62; 6HR MAX TEMP:  74;

STEPHENVILLE   MOCLDY    67  63  85 NW7G21    29.53R
6HR MIN TEMP:  67; 6HR MAX TEMP:  74;

COMANCHE       MOCLDY    68  68 100 NW6       29.51R FOG
6HR MIN TEMP:  68; 6HR MAX TEMP:  73;

BROWNWOOD      PTCLDY    66  64  94 NE3       29.49F
COLEMAN        CLOUDY    68  52  56 N18G25    29.56R
6HR MIN TEMP:  64; 6HR MAX TEMP:  70;

$$

TXZ143>147-156>162-174-175-261300-
CENTRAL TEXAS

CITY           SKY/WX    TMP DP  RH WIND       PRES   REMARKS
WACO           CLOUDY    72  71  97 S8        29.48S
6HR MIN TEMP:  72; 6HR MAX TEMP:  75; 6HR PCP:  0.01;

WACO-MCGREGOR  MOCLDY    72  71  97 SE12      29.48R
6HR MIN TEMP:  72; 6HR MAX TEMP:  75; 6HR PCP: TRACE;

HILLSBORO      CLOUDY    73  71  93 S15       29.45S
6HR MIN TEMP:  72; 6HR MAX TEMP:  74;

CORSICANA      CLOUDY    74  70  87 S8        29.50R
6HR MIN TEMP:  74; 6HR MAX TEMP:  76; 6HR PCP: TRACE;

MEXIA          CLOUDY    73  68  83 S6G21     29.50R
6HR MIN TEMP:  73; 6HR MAX TEMP:  74;

HEARNE         CLOUDY    74  70  86 S5        29.51R
6HR MIN TEMP:  74; 6HR MAX TEMP:  75;

CAMERON        CLOUDY    75  68  78 SW8       29.51R
6HR MIN TEMP:  75; 6HR MAX TEMP:  75;

TEMPLE         MOCLDY    73  69  87 S9        29.51R
6HR MIN TEMP:  72; 6HR MAX TEMP:  74;

KILLEEN        PTCLDY    72  68  89 S7        29.49R
6HR MIN TEMP:  72; 6HR MAX TEMP:  74; 6HR PCP: TRACE;

KILLEEN-SKYLRK MOCLDY    73  69  87 S8        29.49R
6HR MIN TEMP:  72; 6HR MAX TEMP:  74; 6HR PCP: TRACE;

FORT HOOD      PTCLDY    71  68  89 S7        29.47R
6HR MIN TEMP:  71; 6HR MAX TEMP:  73; 6HR PCP: TRACE;

GATESVILLE     PTCLDY    72  70  94 SE5       29.50S
HAMILTON       CLEAR     70  70 100 W5        29.50R
6HR MIN TEMP:  70; 6HR MAX TEMP:  74;

LAMPASAS       CLEAR     71  69  93 S5        29.49R
6HR MIN TEMP:  71; 6HR MAX TEMP:  76;

$$

TXZ095>097-106>112-122>126-135>138-148>153-164>167-261300-
EAST TEXAS

CITY           SKY/WX    TMP DP  RH WIND       PRES   REMARKS
PARIS          PTCLDY    70  64  83 S12       29.46S
6HR MIN TEMP:  70; 6HR MAX TEMP:  73;

SULPHUR SPRNGS MOCLDY    73  69  86 S14       29.48F
6HR MIN TEMP:  73; 6HR MAX TEMP:  74;

MOUNT PLEASANT PTCLDY    70  70 100 SE6       29.52S
6HR MIN TEMP:  70; 6HR MAX TEMP:  74; 6HR PCP:  0.03;

GILMER         CLOUDY    73  67  83 S6        29.51F
6HR MIN TEMP:  71; 6HR MAX TEMP:  73;

MINEOLA        CLOUDY    73  68  83 S7        29.50R
TYLER          CLOUDY    73  69  87 S8        29.50S
6HR MIN TEMP:  72; 6HR MAX TEMP:  73; 6HR PCP: TRACE;

LONGVIEW       LGT RAIN  73  69  87 S7        29.51F
6HR MIN TEMP:  72; 6HR MAX TEMP:  74; 6HR PCP: TRACE;

MARSHALL       CLOUDY    71  66  84 S3        29.55R
6HR MIN TEMP:  70; 6HR MAX TEMP:  73;

ATHENS         CLOUDY    72  68  88 S3        29.50R
PALESTINE      CLOUDY    73  70  91 SE3       29.51F
JACKSONVILLE   CLOUDY    73  69  88 S6        29.54R
HENDERSON      CLOUDY    73  67  82 S6        29.52F
6HR MIN TEMP:  71; 6HR MAX TEMP:  73;

CENTER         CLOUDY    77  70  79 S14G23    29.54R
6HR MIN TEMP:  75; 6HR MAX TEMP:  77;

NACOGDOCHES    CLOUDY    73  66  78 S15G21    29.49S
6HR MIN TEMP:  72; 6HR MAX TEMP:  73;

LUFKIN         CLOUDY    74  68  81 S10       29.51S
6HR MIN TEMP:  73; 6HR MAX TEMP:  74;

$$

SUPPLEMENTAL OBSERVATIONS (CENTRAL)

CITY           SKY/WX    TMP DP  RH WIND       PRES   REMARKS
DENISON DAM      N/A     64  59  82 NW21        N/A
CADDO GRASSLND   N/A     72  66  83 S8          N/A
PAT MAYSE LAKE   N/A     72  70  94 SE16        N/A
GREENVILLE       N/A     72  68  88 S8          N/A
CEDAR HILL       N/A     72  68  88 S7          N/A
A


USA.gov is the U.S. government's official web portal to all federal, state and local government web resources and services.